Location: Rocktram
(38.2574°N, 122.2805°W)
Time: 03:00:17
(UTC+00:00)

Cosmos 1703 Rocket - Pass Details

Date: 30 March 2020
Orbit: 605 x 634 km, 82.5° (Epoch: 31 May)

Event Time Altitude Azimuth Distance (km) Brightness Sun altitude
Exits shadow 11:41:31 51° 129° (SE) 793 4.1 -26.0°
Maximum altitude 11:42:09 57° 94° (E) 746 4.1 -25.9°
Drops below altitude 10° 11:46:33 10° 16° (NNE) 2,025 6.7 -25.1°
Sets 11:48:50 0° 12° (NNE) 2,938 7.6 -24.7°
